This is the latest recevied weather packets stored in our database for station/object KC0RPY. If no packets are shown the sender has not sent any weather packets the latest 10 day(s).
| Time | Temp. | Humidity | Pressure | Rain* | Wind** | Luminosity | Snow |
|---|---|---|---|---|---|---|---|
| 1778071784 | 8.33° C | 80% | 1018.5 hPa | 0 mm | - | 52 W/m² | - |
| 1778071482 | 8.33° C | 81% | 1018.5 hPa | 0 mm | - | 53 W/m² | - |
| 1778071179 | 8.33° C | 82% | 1018.5 hPa | 0 mm | - | 78 W/m² | - |
| 1778070877 | 8.33° C | 83% | 1018.1 hPa | 0 mm | - | 84 W/m² | - |
| 1778070574 | 8.33° C | 83% | 1018.1 hPa | 0 mm | - | 62 W/m² | - |
| 1778070271 | 8.33° C | 84% | 1018.1 hPa | 0 mm | - | 52 W/m² | - |
| 1778069970 | 8.33° C | 84% | 1018.1 hPa | 0 mm | - | 48 W/m² | - |
| 1778069666 | 8.33° C | 84% | 1017.7 hPa | 0 mm | - | 45 W/m² | - |
| 1778069363 | 7.78° C | 85% | 1017.7 hPa | 0 mm | - | 49 W/m² | - |
| 1778069061 | 7.78° C | 83% | 1017.3 hPa | 0 mm | - | 34 W/m² | - |
| 1778068758 | 7.78° C | 83% | 1017 hPa | 0 mm | - | 25 W/m² | - |
| 1778068456 | 7.78° C | 83% | 1017 hPa | 0 mm | - | 11 W/m² | - |
| 1778068154 | 7.78° C | 84% | 1017 hPa | 0 mm | - | 12 W/m² | - |
| 1778067851 | 7.78° C | 85% | 1016.7 hPa | 0 mm | - | 12 W/m² | - |
| 1778067550 | 7.78° C | 84% | 1016.7 hPa | 0 mm | - | 7 W/m² | - |
| 1778067247 | 7.78° C | 84% | 1017 hPa | 0 mm | - | 7 W/m² | - |
| 1778066944 | 7.78° C | 84% | 1017 hPa | 0 mm | - | 6 W/m² | - |
| 1778066641 | 7.78° C | 83% | 1017.3 hPa | 0 mm | - | 0 W/m² | - |
| 1778066338 | 7.78° C | 83% | 1017.7 hPa | 0 mm | - | 0 W/m² | - |
| 1778066036 | 7.78° C | 83% | 1017.3 hPa | 0 mm | - | 0 W/m² | - |
| 1778065733 | 7.78° C | 85% | 1017.3 hPa | 0 mm | - | 0 W/m² | - |
| 1778065431 | 7.22° C | 88% | 1017 hPa | 0 mm | - | 0 W/m² | - |
| 1778065127 | 7.22° C | 89% | 1017.3 hPa | 0 mm | - | 0 W/m² | - |
| 1778064824 | 7.22° C | 89% | 1018.1 hPa | 0 mm | - | 0 W/m² | - |
| 1778064521 | 7.22° C | 89% | 1017.7 hPa | 0 mm | - | 0 W/m² | - |
* Rain latest hour (hover to see other rain measurements)
** Current wind speed in m/s (hover to see current wind gust speed)